GFSMA_500_spd_231.txt.gz
Wind_Speed
6 7 9 7 7 6 6 5 2 2 2 6 7 6 5 6 5 5 5 5 5 5 6 5 5 5 6 6 5 3 3 1 2 2 2 2 1 2 2 2 4 4 5
2 7 6 3 6 6 6 6 3 1 5 7 6 5 6 6 5 4 5 4 4 4 5 5 5 6 7 5 6 4 4 3 2 2 1 1 3 1 1 2 1 4 3
1 3 3 7 7 7 5 3 5 3 5 6 4 3 4 6 6 5 5 5 4 4 5 6 7 7 9 8 7 7 5 4 4 4 3 3 2 2 2 2 2 1 1
2 4 7 6 10 8 5 4 5 7 7 7 5 5 5 5 4 4 4 5 4 5 4 6 6 7 8 9 9 9 8 7 6 5 4 3 3 3 3 2 2 2 2
3 3 4 2 6 8 6 6 7 9 9 9 7 4 6 6 5 4 4 4 4 4 4 4 5 7 8 8 8 8 6 5 5 4 4 3 3 2 2 1 2 3 3
5 4 3 3 4 8 11 10 7 6 4 6 8 5 7 7 7 6 5 5 4 4 3 4 5 6 7 6 6 6 5 4 4 4 3 2 2 2 2 3 4 4 5
4 6 5 5 6 9 11 13 10 8 6 2 9 10 7 8 7 6 6 6 6 5 4 4 6 7 7 6 5 4 4 3 3 2 2 1 1 1 3 4 5 5 6
6 6 9 9 9 8 9 13 14 12 7 4 2 8 11 12 4 10 8 7 7 7 6 6 7 7 6 4 3 2 1 1 2 2 2 2 2 3 4 4 5 6 6
7 5 9 12 12 13 14 10 13 17 14 10 8 8 9 12 9 9 10 9 8 8 9 9 8 7 6 4 3 2 2 2 2 3 3 2 2 4 4 5 5 5 6
5 8 8 10 14 14 15 17 21 21 19 17 14 10 7 8 5 9 13 11 10 10 11 11 10 7 5 3 2 3 3 3 4 4 3 3 3 4 4 5 5 6 6
8 6 5 8 10 11 14 18 18 17 18 14 15 14 12 10 6 11 14 19 13 12 13 13 10 7 5 4 4 3 2 1 1 2 2 2 2 3 3 3 4 6 7
11 11 9 9 10 12 12 14 14 13 14 16 10 18 6 12 5 9 9 7 15 13 14 14 11 8 6 5 4 4 4 3 2 2 3 4 5 6 7 7 7 8 10
17 13 13 12 13 16 15 11 12 15 17 20 20 13 14 13 12 11 13 5 9 14 16 15 13 11 10 9 8 8 7 7 7 7 7 8 8 9 10 10 10 11 12
22 12 15 15 15 18 15 12 14 16 16 15 16 16 16 13 14 15 12 11 18 15 18 18 16 14 13 12 12 10 9 9 10 10 11 11 11 12 14 14 13 14 15
18 8 12 16 18 16 14 15 15 16 16 19 19 17 14 14 13 17 16 17 18 15 26 20 18 19 18 16 16 14 13 14 13 13 13 13 14 13 14 14 14 15 16
15 11 12 17 21 20 19 20 21 20 19 18 20 19 19 16 13 15 20 21 20 29 25 16 21 23 19 19 18 19 19 18 18 16 16 15 16 17 16 17 18 19 20
21 20 22 20 20 22 22 22 25 25 22 21 20 18 19 17 16 16 18 22 24 26 28 27 25 23 23 22 21 22 21 21 21 22 19 18 18 18 18 19 20 22 23
25 25 24 24 23 24 26 26 26 27 26 26 25 22 21 20 17 17 16 18 21 24 26 29 33 30 29 27 27 24 23 22 23 21 22 19 19 20 20 21 22 23 24
28 29 29 27 27 27 27 27 30 30 28 26 27 28 27 23 21 20 18 19 22 24 27 27 29 29 29 30 28 29 28 27 26 24 23 21 21 22 22 23 23 22 21
32 33 32 33 32 31 31 30 30 30 30 27 29 29 29 29 30 25 23 23 23 25 26 27 28 28 28 30 29 30 31 28 27 27 26 22 24 23 21 21 21 20 20
36 36 37 38 38 38 37 35 34 32 31 29 22 26 28 31 31 26 26 28 28 27 28 27 27 28 28 30 30 30 30 30 26 26 27 26 22 24 22 18 20 21 21
39 39 39 41 43 43 44 43 39 39 37 32 33 27 25 26 34 31 28 29 30 30 29 29 30 29 30 32 33 32 31 32 29 31 30 28 28 23 24 21 23 21 21
39 42 44 46 48 49 49 49 47 44 42 41 36 32 34 34 28 33 33 32 29 29 32 33 31 29 30 32 35 34 33 33 32 33 32 29 30 26 24 20 20 22 22
42 45 47 49 50 51 51 51 52 52 46 44 42 40 40 37 37 33 34 35 33 33 32 35 35 36 33 33 35 35 31 31 32 33 34 27 28 27 24 21 22 22 21
44 46 48 45 45 46 49 51 51 54 55 49 47 46 43 43 44 43 40 39 38 33 35 36 38 40 37 35 35 36 32 31 29 31 32 28 29 29 26 24 22 24 22
46 46 46 42 39 39 42 47 54 56 56 57 54 51 48 45 43 45 44 45 39 36 37 41 42 41 43 38 38 38 36 32 30 32 35 31 29 31 28 25 21 24 26

GFSMA_500_spd_234.txt.gz
Wind_Speed
3 4 4 6 2 5 3 2 4 6 5 3 6 4 4 4 3 6 6 5 8 6 6 5 4 5 6 6 6 5 5 5 4 3 4 6 5 5 5 4 4 4 3
1 3 5 1 2 4 4 2 1 3 3 2 1 2 1 2 1 6 4 5 6 5 6 7 6 6 7 6 6 7 7 7 6 6 6 6 7 7 7 6 5 4 3
2 3 4 9 5 6 3 1 2 1 1 2 2 2 2 3 2 4 4 5 5 6 7 8 9 9 10 10 9 8 7 8 8 8 8 8 9 8 8 7 5 5 6
3 2 6 7 6 6 3 3 5 5 4 5 5 6 6 5 4 4 5 5 6 8 9 8 8 9 10 11 11 10 10 10 9 9 8 9 10 9 9 8 6 5 5
5 5 8 8 3 2 4 4 6 8 5 8 11 10 9 9 7 7 8 6 5 6 7 8 8 8 8 10 11 9 8 7 8 8 9 9 8 7 7 5 4 3 2
3 6 4 4 4 6 7 7 7 6 7 7 16 19 9 12 11 8 8 6 5 6 5 6 8 9 8 8 7 6 7 6 6 6 6 5 4 4 3 3 2 1 0
2 4 4 4 5 5 8 7 9 7 10 9 13 13 11 10 10 5 7 7 4 4 5 4 7 8 9 8 7 6 5 5 5 5 5 4 3 2 2 1 0 1 1
3 2 5 6 6 6 9 12 9 10 11 12 11 10 14 21 11 9 9 9 6 6 8 8 7 8 8 7 6 4 3 3 3 3 3 2 1 1 1 1 1 1 1
3 5 7 6 7 7 8 11 12 12 14 18 13 14 7 11 5 5 10 8 8 8 9 11 9 7 6 5 3 2 2 1 1 1 2 2 2 2 2 3 3 3 2
13 11 6 5 5 6 7 7 12 13 14 15 12 11 8 10 6 7 9 5 8 10 11 11 11 9 6 3 1 1 1 1 1 2 2 3 3 4 4 3 3 3 3
13 14 10 8 8 7 9 9 12 11 9 9 8 9 14 9 14 13 3 11 12 13 15 13 10 8 5 4 3 2 3 4 4 4 5 5 4 4 4 4 4 4 4
10 13 11 9 12 12 13 13 13 12 7 6 7 7 11 10 17 11 8 6 18 20 18 15 12 9 6 4 4 5 5 4 4 4 4 2 2 2 2 3 4 5 6
18 28 2 11 13 13 10 13 15 11 9 7 8 7 10 11 14 11 9 9 12 15 17 15 13 11 8 6 7 6 5 4 3 2 2 3 4 5 5 5 7 7 9
16 18 9 11 15 12 15 12 12 14 13 9 8 6 9 12 13 13 8 11 16 12 6 14 6 15 11 9 8 8 7 6 6 6 7 8 8 8 10 11 10 11 12
15 15 16 18 14 13 15 16 14 15 13 13 11 12 10 10 12 15 13 14 18 11 14 17 17 14 13 12 11 10 11 10 9 9 10 10 10 11 12 11 11 12 13
17 17 16 18 19 21 20 18 18 19 18 16 14 12 13 13 12 11 12 17 18 18 16 19 21 16 18 16 12 13 15 16 15 14 14 14 13 13 13 14 14 14 15
20 21 20 19 19 18 19 17 20 20 20 19 19 16 17 16 13 13 14 15 21 20 19 19 21 11 12 20 15 16 17 19 20 18 18 19 18 17 16 16 17 18 18
23 23 24 25 23 22 21 19 19 19 19 22 21 19 19 20 19 18 17 17 17 17 23 23 23 25 21 21 18 17 21 22 21 18 19 20 21 21 19 19 21 22 22
29 29 28 27 27 25 23 24 21 20 17 22 23 23 22 22 22 21 25 21 20 19 15 20 22 22 20 23 24 25 26 25 24 22 23 24 23 25 23 22 22 24 25
33 33 33 33 31 29 29 28 27 26 23 22 22 24 25 26 26 27 24 23 26 26 23 23 24 26 26 25 27 27 29 29 27 26 23 26 27 28 27 25 22 22 21
37 37 36 35 35 36 32 32 32 33 33 31 28 26 26 26 30 28 28 27 25 30 29 27 27 29 30 31 30 31 31 30 26 25 26 24 23 25 27 26 23 22 22
41 39 39 39 38 34 36 37 36 36 35 36 35 33 31 29 31 26 28 31 31 29 30 31 31 31 32 34 33 32 30 29 31 28 24 27 24 25 26 25 25 25 24
44 42 41 39 36 35 38 40 42 42 41 41 40 39 37 36 34 33 32 28 33 33 31 33 33 33 34 36 36 36 34 30 29 27 23 26 29 28 27 23 24 26 26
46 44 42 42 41 38 40 41 46 46 43 43 45 45 43 40 41 40 38 35 33 33 35 37 34 35 36 37 35 35 35 31 26 28 30 27 28 28 25 22 23 25 25
47 48 47 46 45 42 40 42 44 46 44 40 40 43 47 48 46 47 45 41 40 36 36 37 39 38 37 39 39 37 34 32 28 31 32 28 27 26 25 22 23 26 28
54 53 52 52 49 46 43 42 43 44 39 36 36 36 42 50 54 52 49 46 46 44 45 43 41 40 41 41 40 38 37 35 32 32 31 31 30 28 27 24 22 27 28

GFSMA_500_spd_237.txt.gz
Wind_Speed
3 5 5 1 7 8 5 5 8 8 5 1 1 1 5 5 6 11 7 9 8 6 7 8 10 8 8 9 9 7 6 5 6 8 8 9 9 9 11 10 10 10 8
0 1 2 1 5 3 6 4 5 7 5 2 1 1 2 3 3 4 9 9 6 4 6 9 8 10 10 9 10 11 9 8 7 8 9 9 10 10 12 10 10 9 7
1 2 1 5 5 2 1 2 2 5 6 2 2 1 2 5 3 4 8 6 5 4 6 10 11 9 12 13 12 12 11 10 9 9 10 10 10 11 11 11 10 9 9
2 3 8 6 9 5 2 3 4 6 10 6 2 2 2 1 3 4 6 6 7 6 6 10 12 11 12 12 13 14 13 11 11 10 10 11 12 11 12 12 11 9 8
3 3 5 6 5 6 3 3 6 7 10 7 6 6 4 5 6 8 12 12 9 9 7 8 12 12 14 14 13 13 12 11 11 10 11 11 11 10 10 10 9 7 6
2 0 1 2 4 3 1 5 8 6 7 5 5 10 6 7 6 8 7 8 11 10 8 8 10 12 13 13 11 11 11 11 10 9 9 9 9 8 7 6 5 4 4
2 2 3 1 1 3 4 3 8 6 5 8 7 6 8 12 13 11 10 9 8 11 11 9 10 11 12 12 11 9 9 8 8 7 6 6 5 5 4 4 3 2 2
3 3 5 7 5 3 3 3 8 9 6 11 11 9 6 12 18 15 13 12 11 10 11 10 11 12 11 11 11 9 8 7 6 6 5 5 4 4 3 3 2 2 2
1 4 5 7 7 6 6 3 2 3 8 13 11 10 12 9 19 18 16 15 12 10 9 11 10 12 12 11 10 7 6 6 5 5 5 5 5 5 4 4 3 4 4
3 3 3 6 5 6 6 4 4 5 6 9 6 9 4 4 3 8 15 16 14 13 14 12 13 12 11 9 8 8 7 6 6 6 7 7 7 6 6 5 4 4 5
10 9 7 9 5 6 3 6 5 6 5 6 2 3 4 7 7 10 10 11 16 16 15 15 16 15 12 10 10 9 8 7 7 8 8 8 8 7 6 5 4 4 3
17 19 11 4 8 7 12 1 5 13 1 3 6 5 1 4 5 9 9 10 11 16 19 19 19 18 15 11 10 11 11 11 11 10 8 7 5 3 2 2 1 1 1
20 25 24 12 11 9 10 12 7 6 3 5 5 3 2 2 2 4 5 3 11 20 19 17 15 17 17 14 14 13 13 10 8 7 5 3 1 2 3 3 4 5 6
18 17 17 15 15 10 9 9 10 5 8 5 8 6 4 3 2 8 7 5 6 14 20 19 18 17 13 11 15 12 11 10 8 6 5 4 5 6 8 9 8 7 7
19 15 14 16 16 15 13 8 11 10 13 12 9 8 10 9 8 8 6 5 6 14 17 18 21 23 16 13 13 14 14 11 9 7 6 6 8 8 9 10 10 10 10
20 20 18 14 13 14 12 11 11 11 10 15 13 11 8 11 10 13 11 8 6 11 15 17 22 21 19 16 18 18 17 15 12 9 8 10 11 11 12 12 12 13 13
23 22 22 21 18 15 14 14 14 12 11 15 16 13 14 16 11 13 14 13 12 14 18 22 16 22 19 18 20 21 21 18 16 14 13 13 14 14 14 15 15 16 16
27 27 26 25 25 22 19 17 18 17 16 17 16 15 17 18 17 19 19 18 15 14 21 21 19 21 16 20 24 26 22 22 20 18 16 15 15 14 17 17 17 19 21
33 31 31 30 30 29 25 24 22 21 20 20 20 21 17 17 22 24 23 23 21 20 23 21 28 30 27 25 31 26 27 24 22 21 21 20 19 19 20 19 20 21 23
35 35 34 32 31 32 33 31 28 25 25 25 25 25 24 24 29 32 34 24 23 22 27 23 21 27 28 28 31 31 32 32 29 25 22 24 25 25 25 24 23 24 24
38 39 38 38 36 35 35 35 34 31 28 28 29 30 29 30 32 30 32 18 23 24 22 28 22 24 28 29 31 32 31 32 29 29 27 26 29 27 27 27 27 26 25
44 43 43 43 42 40 38 38 38 36 32 30 31 33 34 33 34 34 29 32 20 22 25 27 28 31 28 29 31 31 31 32 32 30 32 30 28 26 28 28 27 27 26
48 46 46 46 46 45 43 42 41 37 35 36 36 37 38 39 39 38 36 35 28 28 24 31 31 30 31 33 36 33 34 34 34 34 33 32 32 30 30 28 30 29 28
52 50 47 47 47 46 46 46 44 41 38 38 39 39 40 42 44 44 42 39 37 34 35 33 31 36 36 39 37 36 38 34 33 34 32 32 36 33 32 28 28 28 28
49 49 48 47 46 46 46 47 48 47 45 41 40 40 40 41 43 47 48 45 42 42 40 39 38 36 41 41 39 39 37 38 34 32 33 33 35 34 32 30 27 26 28
53 53 53 52 51 50 50 51 52 51 50 47 43 40 40 36 34 33 34 38 46 47 49 48 45 42 39 38 42 40 40 40 39 36 35 38 37 36 33 31 29 28 30

GFSMA_500_spd_240.txt.gz
Wind_Speed
5 7 5 6 4 5 4 1 1 4 3 6 10 2 2 4 7 6 6 7 6 4 5 4 7 11 11 12 11 11 10 8 8 8 9 12 11 12 13 13 12 12 10
3 3 3 4 3 1 5 2 2 5 6 4 3 3 2 2 3 6 5 6 6 5 4 5 7 10 12 12 12 12 11 11 10 10 10 10 12 12 12 12 12 11 11
1 1 4 6 7 7 4 3 2 3 4 2 1 3 4 4 1 6 4 6 5 6 7 7 8 9 12 14 13 13 12 12 11 11 11 12 12 13 13 13 13 12 11
6 3 5 4 8 8 7 6 2 1 3 2 1 1 2 5 5 4 2 3 5 6 8 10 10 11 11 14 14 14 14 12 12 12 11 12 12 12 12 13 12 11 10
7 7 4 3 6 10 8 6 4 2 2 1 3 5 5 6 7 6 7 6 4 5 8 11 12 14 14 13 14 14 14 13 12 13 13 14 13 12 11 11 11 10 9
4 5 2 2 2 6 6 6 6 6 4 2 4 5 6 12 12 11 8 8 7 8 8 11 14 15 17 16 15 14 13 13 13 12 12 12 11 11 10 9 9 8 8
4 7 8 7 7 7 6 7 9 9 8 3 1 5 7 13 14 11 12 11 10 9 10 10 14 17 15 14 15 14 13 13 13 12 12 11 10 9 8 8 7 6 5
4 6 9 9 10 10 8 6 6 6 4 7 6 6 6 10 15 14 13 14 13 12 12 12 12 14 16 15 15 14 12 12 11 11 11 10 10 9 8 7 6 5 5
10 7 10 9 12 11 10 8 3 4 5 6 10 10 7 8 14 20 17 17 16 13 13 13 13 12 15 16 15 14 12 10 9 8 8 8 8 8 7 7 7 7 6
15 15 16 11 11 11 10 9 7 4 6 6 5 6 7 7 5 20 22 23 19 18 16 14 15 13 13 14 14 14 13 12 10 9 8 8 8 8 8 8 7 7 6
17 30 13 14 10 11 10 7 8 8 11 14 4 1 8 8 9 13 12 22 21 21 20 20 15 16 13 13 15 14 14 14 13 13 12 11 11 10 9 8 7 7 6
14 17 18 18 11 6 11 3 3 7 10 5 5 4 4 8 9 10 8 13 20 22 23 21 21 18 14 13 13 15 16 16 17 16 15 14 12 10 8 7 6 6 5
15 14 15 14 15 12 9 4 8 12 12 6 4 2 7 7 8 9 8 8 12 22 21 20 19 17 14 13 15 16 18 19 18 17 15 12 9 8 7 6 6 6 7
14 15 15 15 14 13 13 8 11 12 12 9 5 7 7 8 7 8 7 7 5 16 19 19 20 20 19 16 15 15 16 19 20 17 15 12 9 8 8 8 8 7 8
11 13 15 15 13 11 9 7 8 13 14 10 9 10 11 11 11 10 7 6 6 12 21 23 23 25 26 20 19 20 20 19 19 18 15 13 12 10 10 9 10 11 11
15 14 13 15 15 15 13 12 12 13 13 12 12 13 13 13 13 13 13 11 10 8 15 26 27 28 26 25 23 24 24 22 19 17 17 16 15 14 12 11 11 13 13
20 20 18 17 17 17 17 17 16 16 15 15 15 15 19 19 19 13 14 14 14 15 21 27 30 31 30 28 30 29 28 26 25 22 21 19 17 17 16 14 14 14 15
26 26 26 25 25 24 23 22 21 21 20 19 19 18 20 19 25 20 23 24 22 22 21 27 29 34 33 37 36 32 29 30 28 27 26 21 19 18 18 18 16 16 16
30 31 30 31 31 30 30 29 27 26 25 25 24 23 24 24 24 23 25 26 26 21 22 24 34 36 33 41 37 33 33 36 30 30 28 25 23 21 20 21 18 18 18
34 35 34 32 32 34 35 35 33 31 32 30 29 29 29 30 29 30 30 31 28 30 28 29 32 37 38 38 32 35 36 35 35 32 28 27 27 26 25 23 23 23 25
40 39 38 37 36 35 36 37 38 36 35 36 34 33 35 35 34 35 32 31 33 29 36 34 27 34 31 36 39 38 37 32 34 34 32 29 30 29 28 27 27 27 28
46 45 44 42 40 41 40 40 40 40 39 39 39 38 38 38 38 38 38 36 33 33 22 34 26 24 33 32 35 35 33 33 33 39 38 32 33 33 32 30 31 31 28
50 50 49 49 47 45 46 46 45 44 43 42 42 43 44 42 40 39 40 41 41 35 34 27 23 26 29 30 36 34 31 30 31 37 39 35 33 33 34 34 33 32 31
50 49 49 49 48 46 45 46 46 47 44 43 44 47 48 47 44 42 42 43 44 44 40 38 35 33 30 34 32 32 36 36 33 37 40 39 38 35 35 33 33 33 34
49 50 50 50 51 49 48 47 47 48 47 47 47 48 49 50 48 47 45 43 45 46 47 45 41 39 38 36 35 39 36 38 39 39 41 34 40 39 39 36 35 34 35
51 52 51 52 52 51 50 50 51 51 50 50 50 50 50 50 51 50 49 46 43 43 46 50 49 45 43 43 42 40 40 40 39 39 38 37 36 35 41 37 36 34 35

GFSMA_500_spd_246.txt.gz
Wind_Speed
4 4 3 3 4 7 3 3 4 4 6 3 2 2 4 3 3 1 2 1 1 3 4 6 7 5 4 7 7 8 10 8 10 6 18 14 12 9 21 14 14 15 14
1 1 1 2 4 6 5 4 3 3 4 3 4 6 5 4 3 2 2 1 1 1 2 4 5 6 6 8 7 8 9 8 5 6 12 15 14 13 19 16 11 13 12
1 3 5 6 7 9 8 7 5 7 8 6 5 6 8 8 6 5 3 3 2 1 1 2 5 6 7 8 8 10 9 10 10 8 7 18 13 15 13 13 13 12 12
5 4 4 7 8 8 9 8 7 9 8 6 7 8 9 10 7 10 4 4 3 2 1 1 4 4 5 9 8 9 10 10 10 11 11 10 12 14 15 15 14 13 12
5 6 5 3 6 3 5 6 8 11 10 9 11 11 9 11 10 9 6 6 4 5 4 2 3 5 6 8 9 9 11 11 12 12 12 13 14 14 15 14 13 11 10
2 6 8 8 4 2 4 7 8 13 12 12 10 10 11 12 12 11 8 8 7 6 6 5 6 6 7 8 9 10 11 11 12 12 13 14 13 12 12 11 11 10 10
3 4 7 8 9 9 6 6 7 11 14 10 8 6 8 11 13 14 13 11 10 9 8 7 7 8 8 8 9 11 11 11 12 13 13 13 13 12 11 11 10 10 9
5 8 10 10 12 11 9 9 8 7 9 5 7 8 10 12 12 16 16 15 13 11 10 9 9 8 9 11 11 11 11 11 11 12 13 14 13 13 12 12 11 11 10
5 8 10 11 13 13 12 10 12 6 6 7 9 9 11 13 15 12 19 19 15 14 12 12 11 12 12 12 12 12 13 12 12 12 13 13 14 13 13 13 12 12 11
5 9 12 2 8 8 6 12 11 10 10 10 11 11 10 11 13 12 13 19 17 17 16 16 15 15 15 15 14 14 15 15 13 14 14 15 15 15 14 14 13 13 13
3 8 11 8 7 5 4 5 10 10 8 10 15 16 14 8 8 12 12 21 19 18 18 18 18 18 19 18 18 17 17 17 16 17 17 17 16 16 15 15 14 14 13
4 7 6 8 7 8 6 3 3 8 4 9 11 10 10 8 11 9 11 15 21 22 23 24 23 22 22 22 22 20 20 19 18 19 19 19 18 18 17 16 15 14 13
4 4 7 7 8 8 7 6 2 1 2 5 7 10 10 11 12 12 11 14 16 19 22 32 28 27 27 26 25 24 22 21 20 20 20 20 19 19 18 17 16 14 13
5 5 7 9 7 8 8 7 5 4 2 3 4 9 12 12 13 14 13 14 15 16 20 29 33 33 30 28 28 26 24 23 21 21 21 20 21 19 18 16 16 15 15
9 8 9 10 13 12 12 12 10 10 12 8 5 8 12 15 17 18 16 16 17 18 18 20 31 35 33 31 29 27 27 25 24 23 22 21 21 21 20 19 18 17 16
12 10 12 13 13 17 15 16 17 17 16 16 16 14 13 15 17 19 22 22 22 20 19 20 25 33 31 30 30 30 30 29 27 26 24 23 24 24 23 22 20 19 18
15 19 18 18 17 19 19 19 20 20 21 21 20 21 21 18 18 16 17 22 28 25 25 27 26 30 32 34 33 34 32 32 30 28 28 29 29 28 26 25 22 21 20
18 23 23 22 22 22 23 23 25 24 25 25 26 26 27 25 25 23 20 20 18 17 23 23 25 25 35 36 36 38 37 35 33 31 32 32 31 30 29 27 25 23 23
22 24 24 24 25 27 28 27 29 30 30 30 31 30 30 30 29 29 27 25 24 21 19 20 21 25 28 29 39 38 39 38 36 35 36 35 34 34 33 30 28 26 26
24 27 28 28 29 30 30 32 34 35 36 37 36 37 36 35 33 32 33 32 30 28 25 22 22 22 24 34 34 39 39 43 42 42 39 40 39 37 35 34 32 30 28
28 29 30 31 32 32 35 36 38 40 41 42 42 42 41 42 41 38 35 36 37 34 32 29 26 26 27 24 35 41 44 45 46 47 44 43 42 40 39 39 38 37 34
31 33 34 33 33 33 35 36 39 42 43 42 44 45 46 44 45 45 42 38 40 40 38 35 33 30 31 29 28 27 47 48 48 49 49 47 48 41 43 43 42 42 40
28 30 31 33 34 35 37 38 39 39 41 42 44 45 49 49 49 50 49 43 41 43 42 41 37 34 35 36 34 34 28 46 50 50 51 46 46 48 48 50 48 46 44
33 34 36 36 37 38 39 41 43 44 43 43 44 45 46 48 49 51 51 51 43 45 47 45 43 41 39 39 36 36 36 31 44 50 53 50 46 44 53 48 47 50 49
36 37 38 41 44 46 48 51 52 53 53 52 51 51 50 49 50 51 53 51 47 43 48 49 47 44 44 42 40 38 36 38 34 35 50 50 44 47 54 51 52 50 51
38 40 42 44 46 49 51 54 57 57 59 64 63 60 57 57 55 55 55 52 49 45 48 50 49 47 45 46 46 42 39 38 41 37 35 43 47 49 47 47 51 54 50